Tracking 20232 objects as of 18-Jan-2020
HD Live streaming from Space Station
objects crossing your sky now

TEMPSAT 2

Track TEMPSAT 2 now!
10-day predictions
TEMPSAT 2 is classified as:


NORAD ID: 4168
Int'l Code: 1969-082H
Perigee: 899.9 km
Apogee: 933.0 km
Inclination: 70.0 °
Period: 103.2 minutes
Semi major axis: 7287 km
RCS: 0.0673 m2 (small)
Launch date: September 30, 1969
Source: United States (US)
Launch site: AIR FORCE WESTERN TEST RANGE (AFWTR)
aabbcc
Your satellite tracking list
Your tracking list is empty




NASA's NSSDC Master Catalog

Two Line Element Set (TLE):
1  4168U 69082H   20017.57342476 -.00000045 +00000-0 +56557-5 0  9995
2  4168 070.0147 060.1544 0022713 295.2458 064.6293 13.95540549561287
Source of the keplerian elements: AFSPC